Regional Weather Roundup
Issued by NWS Northern Indiana

Home | Current Version | Previous Version | Graphics & Text | Print | Product List | Glossary On
Versions: 1 2 3 4 5 6 7 8 9 10 11 12 13 14 15 16 17 18 19 20 21 22 23 24 25 26 27 28 29 30 31 32 33 34 35 36 37 38 39 40 41 42 43 44 45 46 47 48 49 50
000
ASUS43 KIWX 270010
RWRIWX

KIWX WEATHER ROUNDUP
NATIONAL WEATHER SERVICE NORTHERN INDIANA
700 PM EST FRI DEC 26 2014

NOTE: "FAIR" INDICATES FEW OR NO CLOUDS BELOW 12,000 FEET WITH NO
SIGNIFICANT WEATHER AND/OR OBSTRUCTIONS TO VISIBILITY.

* THESE STATIONS ARE NOT UNDER NWS QUALITY CONTROL. THEY ALSO MAY NOT
  REPORT WEATHER SUCH AS PRECIPITATION OR FOG.

INZ001>027-270100-
NORTHERN INDIANA

CITY           SKY/WX    TMP DP  RH WIND       PRES   REMARKS
GARY*          CLOUDY    52  39  62 S10       30.04R
VALPARAISO     CLOUDY    48  42  80 S9        30.06R
6HR MIN TEMP:  47; 6HR MAX TEMP:  51;

MICHIGAN CITY* CLOUDY    46  36  66 S8        30.05R
LAPORTE*       CLOUDY    49  43  78 SW8       30.06R
6HR MIN TEMP:  49; 6HR MAX TEMP:  52;

KNOX*          CLOUDY    47  38  69 S12       30.06R
6HR MIN TEMP:   9; 6HR MAX TEMP:  81;

SOUTH BEND     CLOUDY    48  41  76 S8        30.07R
6HR MIN TEMP:  47; 6HR MAX TEMP:  51;

ELKHART*       CLOUDY    46  37  71 S6        30.07R
GOSHEN         CLOUDY    47  40  76 S9        30.07R
6HR MIN TEMP:  46; 6HR MAX TEMP:  49;

MONTICELLO*    CLOUDY    46  41  82 S6        30.08R
6HR MIN TEMP:  46; 6HR MAX TEMP:  51;

LOGANSPORT*    PTCLDY    37  36  93 S7        30.10R
ROCHESTER*     PTCLDY    45  41  87 S3        30.09R
WARSAW*        PTCLDY    43  39  87 S3        30.08S
ANGOLA*        CLEAR     41  37  87 S3        30.08S
FORT WAYNE     MOCLDY    42  38  85 S9        30.11R
6HR MIN TEMP:  42; 6HR MAX TEMP:  48;

HUNTINGTON*    MOCLDY    44  40  85 S7        30.10R
6HR MIN TEMP:  44; 6HR MAX TEMP:  49;

PERU/GRISSOM   MOCLDY    43  43 100 S9        30.09R
6HR MIN TEMP:  43; 6HR MAX TEMP:  51;

MARION*        MOCLDY    43  38  83 S8        30.11S
6HR MIN TEMP:  22; 6HR MAX TEMP:  54;


$$
INZ028>050-270100-
CENTRAL INDIANA

CITY           SKY/WX    TMP DP  RH WIND       PRES   REMARKS
LAFAYETTE      PTCLDY    44  39  82 S5        30.08S
6HR MIN TEMP:  44; 6HR MAX TEMP:  51;

KOKOMO*        MOCLDY    45  39  81 SW9       30.10R
MUNCIE*        MOCLDY    46  39  76 S10       30.12R
6HR MIN TEMP:  46; 6HR MAX TEMP:  50;

INDIANAPOLIS   MOCLDY    45  39  79 S9        30.11R
6HR MIN TEMP:  45; 6HR MAX TEMP:  52;


$$
MIZ043>046-050>051-056>058-064>065-071>073-077>080-270100-
SOUTHWEST LOWER MICHIGAN

CITY           SKY/WX    TMP DP  RH WIND       PRES   REMARKS
BATTLE CREEK   PTCLDY    43  37  79 S8        30.06R
6HR MIN TEMP:  43; 6HR MAX TEMP:  49;

BENTON HARBOR  CLOUDY    46  40  79 S3        30.05R
6HR MIN TEMP:  45; 6HR MAX TEMP:  50;

COLDWATER*     CLOUDY    42  37  83 MISG      30.07S
6HR MIN TEMP:  41; 6HR MAX TEMP:  48;

HILLSDALE*     PTCLDY    41  39  91 S6        30.08R
HOLLAND        MOCLDY    41  35  79 CALM      30.05R
6HR MIN TEMP:  41; 6HR MAX TEMP:  49;

GRAND RAPIDS   MOCLDY    37  32  82 E3        30.05R
6HR MIN TEMP:  37; 6HR MAX TEMP:  49;

KALAMAZOO      PTCLDY    42  37  82 S8        30.06R
6HR MIN TEMP:  42; 6HR MAX TEMP:  50;

STURGIS*       CLOUDY    45  39  81 S8        30.06S
THREE RIVERS*  CLOUDY    43  38  84 S5        30.07R

$$
OHZ001>008-015>018-024>025-270100-
NORTHWEST OHIO

CITY           SKY/WX    TMP DP  RH WIND       PRES   REMARKS
WAUSEON*       FAIR      41  39  93 S7        30.11R
DEFIANCE       MOCLDY    43  39  86 S5        30.12R
6HR MIN TEMP:  42; 6HR MAX TEMP:  49;

FINDLAY        PTCLDY    40  35  83 S9        30.13R
6HR MIN TEMP:  39; 6HR MAX TEMP:  50;

TOLEDO EXPRESS MOCLDY    42  38  85 S3        30.12R
6HR MIN TEMP:  42; 6HR MAX TEMP:  48;

TOLEDO METCALF MOCLDY    40  35  83 S7        30.14R
6HR MIN TEMP:  40; 6HR MAX TEMP:  48;

LIMA           PTCLDY    45  36  70 S7        30.13R
6HR MIN TEMP:  45; 6HR MAX TEMP:  50;


$$
AND FOR LAKE MICHIGAN COASTAL AND OPEN LAKE BUOY OBSERVATIONS

STATION/POSITION TEMP    WIND        PRES    VSBY  WAVE
                 AIR SEA DIR/SP/G                  HT/PER
                 (F)     (DEG/KT/KT) (MB)    (MI)  (FT/S)
CALUMET HARBOR    49     180/  7/ 10 1015.7R
MICHIGAN CITY     49     180/ 12/ 17   N/A
SAINT JOSEPH      48     140/  3/  7 1018.3R

$$
&&


USA.gov is the U.S. government's official web portal to all federal, state and local government web resources and services.